Flag for Latvia Weather past 2 weeks in Jelgava, Latvia

Now
28 °F

Light snow. Low clouds.


Feels Like: 28 °F
Forecast: 18 / 30 °F
Wind: 1 mph from Northwest

Location: Riga Airport

Current Time: Jan 25, 2015 at 10:22:44 PM

Latest Report: Jan 25, 2015 at 9:50 PM


Visibility: 4 mi

Pressure: 30.15 "Hg

Humidity: 100%

Dew point: 28 °F

Location of JelgavaLocation

Historic Weather in Jelgava — Graph

°F

Jelgava temperature yesterday

Maximum temperature yesterday: 30 °F (at 1:50 PM)
Minimum temperature yesterday: 18 °F (at 12:20 AM)
Average temperature yesterday: 26 °F

Past Weeks' High & Low Weather Summary

 TemperatureHumidityPressure
High41 °F (Jan 13, 2:50 AM)100% (Jan 10, 9:20 PM)30.27 "Hg (Jan 10, 9:20 PM)
Low18 °F (Jan 24, 12:20 AM)64% (Jan 12, 9:20 AM)28.65 "Hg (Jan 11, 5:50 AM)
Average32 °F94%29.82 "Hg
* Reported Jan 10 9:20 PM — Jan 25 9:20 PM, Jelgava, Weather by CustomWeather, © 2014

Note: Actual official high and low records may vary slightly from our data, if they occured in-between our weather recording intervals... More about our weather records

Advertising

Jelgava weather history for previous 24 hours

 ConditionsComfort  
Time TempWeatherWind HumidityBarometerVisibility
9:20 PM
Jan 25
28 °FLight snow. Low clouds.2 mph100%30.15 "Hg4 mi
8:50 PM28 °FLight snow. Ice fog.2 mph100%30.15 "Hg3 mi
8:20 PM28 °FLight snow. Ice fog.No wind100%30.15 "Hg3 mi
7:50 PM28 °FLight snow. Ice fog.No wind100%30.15 "Hg3 mi
7:20 PM28 °FSnow. Low clouds.2 mph100%30.15 "Hg3 mi
6:50 PM28 °FSnow. Mostly cloudy.2 mph100%30.15 "Hg3 mi
6:20 PM28 °FSnow. Mostly cloudy.1 mph100%30.15 "Hg2 mi
5:50 PM28 °FSnow. Overcast.2 mph100%30.15 "Hg2 mi
5:20 PM28 °FSnow. Mostly cloudy.No wind100%30.12 "Hg3 mi
4:50 PM28 °FSnow. Overcast.No wind100%30.12 "Hg1 mi
4:20 PM28 °FSnow. Mostly cloudy.2 mph100%30.12 "Hg1 mi
3:50 PM28 °FChilly.3 mph100%30.12 "Hg1 mi
3:20 PM28 °FLight snow. Mostly cloudy.5 mph100%30.12 "Hg6 mi
2:50 PM28 °FSnow. Cloudy.5 mph100%30.12 "Hg2 mi
2:20 PM30 °FSnow. Cloudy.5 mph93%30.12 "Hg2 mi
1:50 PM28 °FLight snow. Cloudy.2 mph100%30.12 "Hg4 mi
1:20 PM30 °FSnow. Cloudy.No wind93%30.12 "Hg5 mi
12:50 PM28 °FSnow. Mostly cloudy.2 mph100%30.12 "Hg2 mi
12:20 PM28 °FLight snow. Mostly cloudy.2 mph93%30.12 "Hg5 mi
11:50 AM28 °FLight snow. Partly sunny.2 mph93%30.12 "Hg5 mi
11:20 AM28 °FLight snow. Partly sunny.No wind93%30.12 "Hg4 mi
10:50 AM28 °FLight snow. Partly sunny.1 mph93%30.12 "Hg4 mi
10:20 AM27 °FLight snow. Ice fog.No wind100%30.12 "Hg2 mi
9:50 AM27 °FLight snow. Ice fog.No wind100%30.12 "Hg3 mi
9:20 AM27 °FLight snow. Mostly cloudy.No wind100%30.12 "Hg4 mi
8:50 AM27 °FLight snow. Mostly cloudy.No wind100%30.09 "Hg4 mi
8:20 AM27 °FLight snow. Ice fog.No wind100%30.09 "Hg3 mi
7:50 AM27 °FLight snow. Overcast.No wind100%30.09 "Hg4 mi
7:20 AM27 °FOvercast.No wind100%30.09 "HgN/A
6:50 AM27 °FLow clouds.1 mph100%30.09 "HgN/A
6:20 AM27 °FLow clouds.1 mph100%30.09 "HgN/A
5:20 AM27 °FLow clouds.5 mph93%30.09 "HgN/A
4:50 AM27 °FLow clouds.5 mph93%30.09 "HgN/A
4:20 AM27 °FLow clouds.3 mph93%30.09 "HgN/A
3:50 AM27 °FLow clouds.6 mph93%30.12 "HgN/A
3:20 AM27 °FLow clouds.6 mph93%30.12 "HgN/A
2:50 AM27 °FLow clouds.5 mph93%30.12 "HgN/A
2:20 AM27 °FLow clouds.5 mph93%30.12 "HgN/A
1:50 AM27 °FLow clouds.3 mph93%30.12 "HgN/A
1:20 AM27 °FLow clouds.3 mph93%30.15 "HgN/A
12:50 AM27 °FLow clouds.5 mph93%30.15 "HgN/A
12:20 AM25 °FLow clouds.6 mph100%30.15 "HgN/A
11:50 PM
Jan 24
25 °FLow clouds.5 mph100%30.15 "HgN/A
11:20 PM25 °FLow clouds.8 mph100%30.15 "HgN/A
10:50 PM25 °FLow clouds.10 mph100%30.15 "HgN/A
10:20 PM25 °FLow clouds.10 mph100%30.15 "HgN/A
Weather by CustomWeather, © 2014

See weather overviewHow to use our weather pages